COSMOS 1275 DEB

Satellite information

Favourite Embed

Satellite Type and Status

DEBRISIN ORBIT

Key statistics

Satellite COSMOS 1275 DEB at a glance.

Uptime

16159

Days in orbit

Revolutions

≈ 14.2

Per day

Orbit

LEO

Low Earth Orbit

Inclination

82.8

Latest

Satellite identification and parameters

Extended collection of information and parameters for COSMOS 1275 DEB.

Object identification

Identified? True

Debris? True

Object name: COSMOS 1275 DEB

International designator: 1981-053UD

Object number (NORAD): 42213

Object ID (CCSDS): 42213

Country: COMMONWEALTH OF INDEPENDENT STATES (CIS)

Current information (Y/N): Y

RCS size: SMALL

Orbital parameters

Period: 101.333 minutes

Inclination: 82.8182 deg

SMA: 7199.919 km

Apoapsis: 851.905 km

Periapsis: 791.663 km

RAAN: 311.2315 deg

Eccentricy: 0.00418351

Argument of periapsis: 276.0645 deg

Mean anomaly: 83.577 deg

Mean motion: 14.21056518 rev/day

Mean motion (dot): 0.00003666 rev/day2

B* drag term: 0.0016681242 1/REarth

Two-line elements (TLE)

Creation date: Aug. 31, 2025, 2:26 a.m.

Reference frame: TEME

Reference center: EARTH

Epoch: Aug. 30, 2025, 11:30 a.m. UTC

TLE line 0: 0 COSMOS 1275 DEB

TLE line 1: 1 42213U 81053UD 25242.47969627 .00003666 00000-0 16681-2 0 9999

TLE line 2: 2 42213 82.8182 311.2315 0041835 276.0645 83.5770 14.21056518162787

Live tracking on map

Real-time ground track for satellite COSMOS 1275 DEB.

In-orbit conjunctions

A list of the most updated potential collisions computed for object COSMOS 1275 DEB.

Target Orbit TCA Probability of collision Miss distance Type
CZ-4 DEB SSO 2025-08-06 02:23:50 0.0001540228 448.0 (m) DEBRIS
FENGYUN 1C DEB SSO 2024-11-14 20:37:28 0.0001591273 298.0 (m) DEBRIS
SL-3 R/B LEO 2024-10-19 02:39:30 0.0001301144 315.0 (m) ROCKET BODY

Associated space launch

Navigation satellite providing location information for the Tsiklon-B navigation system

COSMOS 1275 DEB was lifted into orbit during the mission ‘Kosmos-3M | Parus 27’, on board a Kosmos-3M space rocket.

The launch took place on June 4, 1981, 3:41 p.m. from 132/2.

For more information about the launch, click the button.

Launch to space Kosmos-3M | Parus 27
Kosmos-3M | Parus 27

Agency: N/A

Status: Launch Successful

Launch date: June 4, 1981, 3:41 p.m. UTC

Rocket: Kosmos-3M

Launch pad: 132/2

Location: Plesetsk Cosmodrome, Russian Federation

...

Latest news about this satellite

There are no fresh news available about this satellite. Check back as we update our databases every day.


Newsletter sign-up

Weekly statistics, charts and insights to help you stay on top of the space industry.